owner,sensor,date,latitude,longitude,vertical_datum,mass_concentration_of_oxygen_in_sea_water,qcFlag 
DISL,ioos:station:DISL:BSCA:1,2015-07-01T00:00:00Z,30.3288,-87.8293,1.599,6.13,1111122 
DISL,ioos:station:DISL:BSCA:1,2015-07-01T00:30:00Z,30.3288,-87.8293,1.591,6.6,1111122 
DISL,ioos:station:DISL:BSCA:1,2015-07-01T01:00:00Z,30.3288,-87.8293,1.591,6.47,1111122 
DISL,ioos:station:DISL:BSCA:1,2015-07-01T01:30:00Z,30.3288,-87.8293,1.592,5.5,1111122 
DISL,ioos:station:DISL:BSCA:1,2015-07-01T02:00:00Z,30.3288,-87.8293,1.597,5.64,1111122 
DISL,ioos:station:DISL:BSCA:1,2015-07-01T02:30:00Z,30.3288,-87.8293,1.59,5.08,1111122 
DISL,ioos:station:DISL:BSCA:1,2015-07-01T03:00:00Z,30.3288,-87.8293,1.605,5.98,1111122 
DISL,ioos:station:DISL:BSCA:1,2015-07-01T03:30:00Z,30.3288,-87.8293,1.608,6.66,1111122 
DISL,ioos:station:DISL:BSCA:1,2015-07-01T04:00:00Z,30.3288,-87.8293,1.644,6.08,1111122 
DISL,ioos:station:DISL:BSCA:1,2015-07-01T04:30:00Z,30.3288,-87.8293,1.675,5.86,1111122 
DISL,ioos:station:DISL:BSCA:1,2015-07-01T05:00:00Z,30.3288,-87.8293,1.689,6.08,1111122 
DISL,ioos:station:DISL:BSCA:1,2015-07-01T05:30:00Z,30.3288,-87.8293,1.778,5.9,1111122 
DISL,ioos:station:DISL:BSCA:1,2015-07-01T06:00:00Z,30.3288,-87.8293,1.795,5.66,1111122 
DISL,ioos:station:DISL:BSCA:1,2015-07-01T06:30:00Z,30.3288,-87.8293,1.813,5.62,1111122 
DISL,ioos:station:DISL:BSCA:1,2015-07-01T07:00:00Z,30.3288,-87.8293,1.846,5.7,1111122 
DISL,ioos:station:DISL:BSCA:1,2015-07-01T07:30:00Z,30.3288,-87.8293,1.863,5.67,1111122 
DISL,ioos:station:DISL:BSCA:1,2015-07-01T08:00:00Z,30.3288,-87.8293,1.868,5.78,1111122 
DISL,ioos:station:DISL:BSCA:1,2015-07-01T08:30:00Z,30.3288,-87.8293,1.838,5.38,1111122 
DISL,ioos:station:DISL:BSCA:1,2015-07-01T09:00:00Z,30.3288,-87.8293,1.869,5.19,1111122 
DISL,ioos:station:DISL:BSCA:1,2015-07-01T09:30:00Z,30.3288,-87.8293,1.857,4.85,1111122 
DISL,ioos:station:DISL:BSCA:1,2015-07-01T10:00:00Z,30.3288,-87.8293,1.887,4.95,1111122 
DISL,ioos:station:DISL:BSCA:1,2015-07-01T10:30:00Z,30.3288,-87.8293,1.897,4.43,1111122 
DISL,ioos:station:DISL:BSCA:1,2015-07-01T11:00:00Z,30.3288,-87.8293,1.931,4.08,1111122 
DISL,ioos:station:DISL:BSCA:1,2015-07-01T11:30:00Z,30.3288,-87.8293,1.968,3.88,1111122 
DISL,ioos:station:DISL:BSCA:1,2015-07-01T12:00:00Z,30.3288,-87.8293,2.01,3.1,1111122 
DISL,ioos:station:DISL:BSCA:1,2015-07-01T12:30:00Z,30.3288,-87.8293,2.054,3.09,1111122 
DISL,ioos:station:DISL:BSCA:1,2015-07-01T13:00:00Z,30.3288,-87.8293,2.094,3.2,1111122 
DISL,ioos:station:DISL:BSCA:1,2015-07-01T13:30:00Z,30.3288,-87.8293,2.116,3.41,1111122 
DISL,ioos:station:DISL:BSCA:1,2015-07-01T14:00:00Z,30.3288,-87.8293,2.131,4.22,1111122 
DISL,ioos:station:DISL:BSCA:1,2015-07-01T14:30:00Z,30.3288,-87.8293,2.141,4.77,1111122 
DISL,ioos:station:DISL:BSCA:1,2015-07-01T15:00:00Z,30.3288,-87.8293,2.155,4.44,1111122 
DISL,ioos:station:DISL:BSCA:1,2015-07-01T15:30:00Z,30.3288,-87.8293,2.166,4.57,1111122 
DISL,ioos:station:DISL:BSCA:1,2015-07-01T16:00:00Z,30.3288,-87.8293,2.173,4.57,1111122 
DISL,ioos:station:DISL:BSCA:1,2015-07-01T16:30:00Z,30.3288,-87.8293,2.185,4.4,1111122 
DISL,ioos:station:DISL:BSCA:1,2015-07-01T17:00:00Z,30.3288,-87.8293,2.166,3.91,1111122 
DISL,ioos:station:DISL:BSCA:1,2015-07-01T17:30:00Z,30.3288,-87.8293,2.151,3.98,1111122 
DISL,ioos:station:DISL:BSCA:1,2015-07-01T18:00:00Z,30.3288,-87.8293,2.102,5.67,1111122 
DISL,ioos:station:DISL:BSCA:1,2015-07-01T18:30:00Z,30.3288,-87.8293,2.063,6.4,1111122 
DISL,ioos:station:DISL:BSCA:1,2015-07-01T19:00:00Z,30.3288,-87.8293,2.035,6.35,1111122 
DISL,ioos:station:DISL:BSCA:1,2015-07-01T19:30:00Z,30.3288,-87.8293,1.995,5.85,1111122 
DISL,ioos:station:DISL:BSCA:1,2015-07-01T20:00:00Z,30.3288,-87.8293,1.965,6.04,1111122 
DISL,ioos:station:DISL:BSCA:1,2015-07-01T20:30:00Z,30.3288,-87.8293,1.934,6.22,1111122 
DISL,ioos:station:DISL:BSCA:1,2015-07-01T21:00:00Z,30.3288,-87.8293,1.899,7.06,1111122 
DISL,ioos:station:DISL:BSCA:1,2015-07-01T21:30:00Z,30.3288,-87.8293,1.864,6.82,1111122 
DISL,ioos:station:DISL:BSCA:1,2015-07-01T22:00:00Z,30.3288,-87.8293,1.844,7.17,1111122 
DISL,ioos:station:DISL:BSCA:1,2015-07-01T22:30:00Z,30.3288,-87.8293,1.764,7.08,1111122 
DISL,ioos:station:DISL:BSCA:1,2015-07-01T23:00:00Z,30.3288,-87.8293,1.924,7.17,1111122 
DISL,ioos:station:DISL:BSCA:1,2015-07-01T23:30:00Z,30.3288,-87.8293,1.829,7.22,1111122 
DISL,ioos:station:DISL:BSCA:1,2015-07-02T00:00:00Z,30.3288,-87.8293,1.804,7.44,1111122 
DISL,ioos:station:DISL:BSCA:1,2015-07-02T00:30:00Z,30.3288,-87.8293,1.772,7.33,1111122 
DISL,ioos:station:DISL:BSCA:1,2015-07-02T01:00:00Z,30.3288,-87.8293,1.699,7.08,1111122 
DISL,ioos:station:DISL:BSCA:1,2015-07-02T01:30:00Z,30.3288,-87.8293,1.706,6.2,1111122 
DISL,ioos:station:DISL:BSCA:1,2015-07-02T02:00:00Z,30.3288,-87.8293,1.644,6.54,1111122 
DISL,ioos:station:DISL:BSCA:1,2015-07-02T02:30:00Z,30.3288,-87.8293,1.642,6.88,1111122 
DISL,ioos:station:DISL:BSCA:1,2015-07-02T03:00:00Z,30.3288,-87.8293,1.615,6.26,1111122 
DISL,ioos:station:DISL:BSCA:1,2015-07-02T03:30:00Z,30.3288,-87.8293,1.593,6.65,1111122 
DISL,ioos:station:DISL:BSCA:1,2015-07-02T04:00:00Z,30.3288,-87.8293,1.606,5.66,1111122 
DISL,ioos:station:DISL:BSCA:1,2015-07-02T04:30:00Z,30.3288,-87.8293,1.587,6.19,1111122 
DISL,ioos:station:DISL:BSCA:1,2015-07-02T05:00:00Z,30.3288,-87.8293,1.63,5.15,1111122 
DISL,ioos:station:DISL:BSCA:1,2015-07-02T05:30:00Z,30.3288,-87.8293,1.644,4.65,1111122 
DISL,ioos:station:DISL:BSCA:1,2015-07-02T06:00:00Z,30.3288,-87.8293,1.678,5.39,1111122 
DISL,ioos:station:DISL:BSCA:1,2015-07-02T06:30:00Z,30.3288,-87.8293,1.723,5.03,1111122 
DISL,ioos:station:DISL:BSCA:1,2015-07-02T07:00:00Z,30.3288,-87.8293,1.764,4.4,1111122 
DISL,ioos:station:DISL:BSCA:1,2015-07-02T07:30:00Z,30.3288,-87.8293,1.795,4.73,1111122 
DISL,ioos:station:DISL:BSCA:1,2015-07-02T08:00:00Z,30.3288,-87.8293,1.819,4.62,1111122 
DISL,ioos:station:DISL:BSCA:1,2015-07-02T08:30:00Z,30.3288,-87.8293,1.856,4.51,1111122 
DISL,ioos:station:DISL:BSCA:1,2015-07-02T09:00:00Z,30.3288,-87.8293,1.889,4.18,1111122 
DISL,ioos:station:DISL:BSCA:1,2015-07-02T09:30:00Z,30.3288,-87.8293,1.914,4.41,1111122 
DISL,ioos:station:DISL:BSCA:1,2015-07-02T10:00:00Z,30.3288,-87.8293,1.944,3.85,1111122 
DISL,ioos:station:DISL:BSCA:1,2015-07-02T10:30:00Z,30.3288,-87.8293,1.97,4.26,1111122 
DISL,ioos:station:DISL:BSCA:1,2015-07-02T11:00:00Z,30.3288,-87.8293,1.991,4.56,1111122 
DISL,ioos:station:DISL:BSCA:1,2015-07-02T11:30:00Z,30.3288,-87.8293,2.038,3.99,1111122 
DISL,ioos:station:DISL:BSCA:1,2015-07-02T12:00:00Z,30.3288,-87.8293,2.071,4.24,1111122 
DISL,ioos:station:DISL:BSCA:1,2015-07-02T12:30:00Z,30.3288,-87.8293,2.138,5.37,1111122 
DISL,ioos:station:DISL:BSCA:1,2015-07-02T13:00:00Z,30.3288,-87.8293,2.173,5.74,1111122 
DISL,ioos:station:DISL:BSCA:1,2015-07-02T13:30:00Z,30.3288,-87.8293,2.185,5.71,1111122 
DISL,ioos:station:DISL:BSCA:1,2015-07-02T14:00:00Z,30.3288,-87.8293,2.221,5.31,1111122 
DISL,ioos:station:DISL:BSCA:1,2015-07-02T14:30:00Z,30.3288,-87.8293,2.249,5.32,1111122 
DISL,ioos:station:DISL:BSCA:1,2015-07-02T15:00:00Z,30.3288,-87.8293,2.29,5.33,1111122 
DISL,ioos:station:DISL:BSCA:1,2015-07-02T15:30:00Z,30.3288,-87.8293,2.293,5.22,1111122 
DISL,ioos:station:DISL:BSCA:1,2015-07-02T16:00:00Z,30.3288,-87.8293,2.304,5.34,1111122 
DISL,ioos:station:DISL:BSCA:1,2015-07-02T16:30:00Z,30.3288,-87.8293,2.29,4.86,1111122 
DISL,ioos:station:DISL:BSCA:1,2015-07-02T17:00:00Z,30.3288,-87.8293,2.266,4.73,1111122 
DISL,ioos:station:DISL:BSCA:1,2015-07-02T17:30:00Z,30.3288,-87.8293,2.242,4.33,1111122 
DISL,ioos:station:DISL:BSCA:1,2015-07-02T18:00:00Z,30.3288,-87.8293,2.232,3.72,1111122 
DISL,ioos:station:DISL:BSCA:1,2015-07-02T18:30:00Z,30.3288,-87.8293,2.21,3.71,1111122 
DISL,ioos:station:DISL:BSCA:1,2015-07-02T19:00:00Z,30.3288,-87.8293,2.184,3.93,1111122 
DISL,ioos:station:DISL:BSCA:1,2015-07-02T19:30:00Z,30.3288,-87.8293,2.146,4.39,1111122 
DISL,ioos:station:DISL:BSCA:1,2015-07-02T20:00:00Z,30.3288,-87.8293,2.109,4.63,1111122 
DISL,ioos:station:DISL:BSCA:1,2015-07-02T20:30:00Z,30.3288,-87.8293,2.061,5.33,1111122 
DISL,ioos:station:DISL:BSCA:1,2015-07-02T21:00:00Z,30.3288,-87.8293,2.033,5.85,1111122 
DISL,ioos:station:DISL:BSCA:1,2015-07-02T21:30:00Z,30.3288,-87.8293,1.979,5.88,1111122 
DISL,ioos:station:DISL:BSCA:1,2015-07-02T22:00:00Z,30.3288,-87.8293,1.958,6.26,1111122 
DISL,ioos:station:DISL:BSCA:1,2015-07-02T22:30:00Z,30.3288,-87.8293,1.907,6.62,1111122 
DISL,ioos:station:DISL:BSCA:1,2015-07-02T23:00:00Z,30.3288,-87.8293,1.895,6.76,1111122 
DISL,ioos:station:DISL:BSCA:1,2015-07-02T23:30:00Z,30.3288,-87.8293,1.874,7.06,1111122 
DISL,ioos:station:DISL:BSCA:1,2015-07-03T00:00:00Z,30.3288,-87.8293,1.818,6.89,1111122 
DISL,ioos:station:DISL:BSCA:1,2015-07-03T00:30:00Z,30.3288,-87.8293,1.79,6.84,1111122 
DISL,ioos:station:DISL:BSCA:1,2015-07-03T01:00:00Z,30.3288,-87.8293,1.754,6.55,1111122 
DISL,ioos:station:DISL:BSCA:1,2015-07-03T01:30:00Z,30.3288,-87.8293,1.712,6.46,1111122 
DISL,ioos:station:DISL:BSCA:1,2015-07-03T02:00:00Z,30.3288,-87.8293,1.693,6.34,1111122 
DISL,ioos:station:DISL:BSCA:1,2015-07-03T02:30:00Z,30.3288,-87.8293,1.668,6.1,1111122 
DISL,ioos:station:DISL:BSCA:1,2015-07-03T03:00:00Z,30.3288,-87.8293,1.656,6.17,1111122 
DISL,ioos:station:DISL:BSCA:1,2015-07-03T03:30:00Z,30.3288,-87.8293,1.644,6.01,1111122 
DISL,ioos:station:DISL:BSCA:1,2015-07-03T04:00:00Z,30.3288,-87.8293,1.641,5.96,1111122 
DISL,ioos:station:DISL:BSCA:1,2015-07-03T04:30:00Z,30.3288,-87.8293,1.641,5.72,1111122 
DISL,ioos:station:DISL:BSCA:1,2015-07-03T05:00:00Z,30.3288,-87.8293,1.663,5.7,1111122 
DISL,ioos:station:DISL:BSCA:1,2015-07-03T05:30:00Z,30.3288,-87.8293,1.69,6.22,1111122 
DISL,ioos:station:DISL:BSCA:1,2015-07-03T06:00:00Z,30.3288,-87.8293,1.724,6.11,1111122 
DISL,ioos:station:DISL:BSCA:1,2015-07-03T06:30:00Z,30.3288,-87.8293,1.766,5.83,1111122 
DISL,ioos:station:DISL:BSCA:1,2015-07-03T07:00:00Z,30.3288,-87.8293,1.786,5.43,1111122 
DISL,ioos:station:DISL:BSCA:1,2015-07-03T07:30:00Z,30.3288,-87.8293,1.822,5.49,1111122 
DISL,ioos:station:DISL:BSCA:1,2015-07-03T08:00:00Z,30.3288,-87.8293,1.843,5.22,1111122 
DISL,ioos:station:DISL:BSCA:1,2015-07-03T08:30:00Z,30.3288,-87.8293,1.874,5.58,1111122 
DISL,ioos:station:DISL:BSCA:1,2015-07-03T09:00:00Z,30.3288,-87.8293,1.895,5.37,1111122 
DISL,ioos:station:DISL:BSCA:1,2015-07-03T09:30:00Z,30.3288,-87.8293,1.911,5.19,1111122 
DISL,ioos:station:DISL:BSCA:1,2015-07-03T10:00:00Z,30.3288,-87.8293,1.936,4.77,1111122 
DISL,ioos:station:DISL:BSCA:1,2015-07-03T10:30:00Z,30.3288,-87.8293,1.958,5.18,1111122 
DISL,ioos:station:DISL:BSCA:1,2015-07-03T11:00:00Z,30.3288,-87.8293,1.98,5.53,1111122 
DISL,ioos:station:DISL:BSCA:1,2015-07-03T11:30:00Z,30.3288,-87.8293,2.024,5.47,1111122 
DISL,ioos:station:DISL:BSCA:1,2015-07-03T12:00:00Z,30.3288,-87.8293,2.056,5.24,1111122 
DISL,ioos:station:DISL:BSCA:1,2015-07-03T12:30:00Z,30.3288,-87.8293,2.097,5.27,1111122 
DISL,ioos:station:DISL:BSCA:1,2015-07-03T13:00:00Z,30.3288,-87.8293,2.118,4.73,1111122 
DISL,ioos:station:DISL:BSCA:1,2015-07-03T13:30:00Z,30.3288,-87.8293,2.141,4.7,1111122 
DISL,ioos:station:DISL:BSCA:1,2015-07-03T14:00:00Z,30.3288,-87.8293,2.175,4.63,1111122 
DISL,ioos:station:DISL:BSCA:1,2015-07-03T14:30:00Z,30.3288,-87.8293,2.202,4.98,1111122 
DISL,ioos:station:DISL:BSCA:1,2015-07-03T15:00:00Z,30.3288,-87.8293,2.227,4.89,1111122 
DISL,ioos:station:DISL:BSCA:1,2015-07-03T15:30:00Z,30.3288,-87.8293,2.249,4.59,1111122 
DISL,ioos:station:DISL:BSCA:1,2015-07-03T16:00:00Z,30.3288,-87.8293,2.257,4.01,1111122 
DISL,ioos:station:DISL:BSCA:1,2015-07-03T16:30:00Z,30.3288,-87.8293,2.27,3.97,1111122 
DISL,ioos:station:DISL:BSCA:1,2015-07-03T17:00:00Z,30.3288,-87.8293,2.266,4.62,1111122 
DISL,ioos:station:DISL:BSCA:1,2015-07-03T17:30:00Z,30.3288,-87.8293,2.264,4.55,1111122 
DISL,ioos:station:DISL:BSCA:1,2015-07-03T18:00:00Z,30.3288,-87.8293,2.257,4.87,1111122 
DISL,ioos:station:DISL:BSCA:1,2015-07-03T18:30:00Z,30.3288,-87.8293,2.235,5.29,1111122 
DISL,ioos:station:DISL:BSCA:1,2015-07-03T19:00:00Z,30.3288,-87.8293,2.229,5.08,1111122 
DISL,ioos:station:DISL:BSCA:1,2015-07-03T19:30:00Z,30.3288,-87.8293,2.19,5.41,1111122 
DISL,ioos:station:DISL:BSCA:1,2015-07-03T20:00:00Z,30.3288,-87.8293,2.162,5.81,1111122 
DISL,ioos:station:DISL:BSCA:1,2015-07-03T20:30:00Z,30.3288,-87.8293,2.121,5.9,1111122 
DISL,ioos:station:DISL:BSCA:1,2015-07-03T21:00:00Z,30.3288,-87.8293,2.096,5.97,1111122 
DISL,ioos:station:DISL:BSCA:1,2015-07-03T21:30:00Z,30.3288,-87.8293,2.045,6.12,1111122 
DISL,ioos:station:DISL:BSCA:1,2015-07-03T22:00:00Z,30.3288,-87.8293,2.006,6.57,1111122 
DISL,ioos:station:DISL:BSCA:1,2015-07-03T22:30:00Z,30.3288,-87.8293,1.952,6.99,1111122 
DISL,ioos:station:DISL:BSCA:1,2015-07-03T23:00:00Z,30.3288,-87.8293,1.92,7.22,1111122 
DISL,ioos:station:DISL:BSCA:1,2015-07-03T23:30:00Z,30.3288,-87.8293,1.897,6.86,1111122 
DISL,ioos:station:DISL:BSCA:1,2015-07-04T00:00:00Z,30.3288,-87.8293,1.866,7.1,1111122 
DISL,ioos:station:DISL:BSCA:1,2015-07-04T00:30:00Z,30.3288,-87.8293,1.841,6.82,1111122 
DISL,ioos:station:DISL:BSCA:1,2015-07-04T01:00:00Z,30.3288,-87.8293,1.814,6.72,1111122 
DISL,ioos:station:DISL:BSCA:1,2015-07-04T01:30:00Z,30.3288,-87.8293,1.776,6.65,1111122 
DISL,ioos:station:DISL:BSCA:1,2015-07-04T02:00:00Z,30.3288,-87.8293,1.764,6.65,1111122 
DISL,ioos:station:DISL:BSCA:1,2015-07-04T02:30:00Z,30.3288,-87.8293,1.735,6.88,1111122 
DISL,ioos:station:DISL:BSCA:1,2015-07-04T03:00:00Z,30.3288,-87.8293,1.731,7.1,1111122 
DISL,ioos:station:DISL:BSCA:1,2015-07-04T03:30:00Z,30.3288,-87.8293,1.715,5.88,1111122 
DISL,ioos:station:DISL:BSCA:1,2015-07-04T04:00:00Z,30.3288,-87.8293,1.715,5.64,1111122 
DISL,ioos:station:DISL:BSCA:1,2015-07-04T04:30:00Z,30.3288,-87.8293,1.719,5.78,1111122 
DISL,ioos:station:DISL:BSCA:1,2015-07-04T05:00:00Z,30.3288,-87.8293,1.731,4.71,1111122 
DISL,ioos:station:DISL:BSCA:1,2015-07-04T05:30:00Z,30.3288,-87.8293,1.747,5.65,1111122 
DISL,ioos:station:DISL:BSCA:1,2015-07-04T06:00:00Z,30.3288,-87.8293,1.767,5.88,1111122 
DISL,ioos:station:DISL:BSCA:1,2015-07-04T06:30:00Z,30.3288,-87.8293,1.795,5.88,1111122 
DISL,ioos:station:DISL:BSCA:1,2015-07-04T07:00:00Z,30.3288,-87.8293,1.806,5.75,1111122 
DISL,ioos:station:DISL:BSCA:1,2015-07-04T07:30:00Z,30.3288,-87.8293,1.817,5.94,1111122 
DISL,ioos:station:DISL:BSCA:1,2015-07-04T08:00:00Z,30.3288,-87.8293,1.847,5.83,1111122 
DISL,ioos:station:DISL:BSCA:1,2015-07-04T08:30:00Z,30.3288,-87.8293,1.875,5.64,1111122 
DISL,ioos:station:DISL:BSCA:1,2015-07-04T09:00:00Z,30.3288,-87.8293,1.911,5.63,1111122 
DISL,ioos:station:DISL:BSCA:1,2015-07-04T09:30:00Z,30.3288,-87.8293,1.941,5.64,1111122 
DISL,ioos:station:DISL:BSCA:1,2015-07-04T10:00:00Z,30.3288,-87.8293,1.957,5.57,1111122 
DISL,ioos:station:DISL:BSCA:1,2015-07-04T10:30:00Z,30.3288,-87.8293,1.98,5.7,1111122 
DISL,ioos:station:DISL:BSCA:1,2015-07-04T11:00:00Z,30.3288,-87.8293,2.002,5.25,1111122 
DISL,ioos:station:DISL:BSCA:1,2015-07-04T11:30:00Z,30.3288,-87.8293,2.024,5.09,1111122 
DISL,ioos:station:DISL:BSCA:1,2015-07-04T12:00:00Z,30.3288,-87.8293,2.027,5.43,1111122 
DISL,ioos:station:DISL:BSCA:1,2015-07-04T12:30:00Z,30.3288,-87.8293,2.059,4.91,1111122 
DISL,ioos:station:DISL:BSCA:1,2015-07-04T13:00:00Z,30.3288,-87.8293,2.093,5.43,1111122 
DISL,ioos:station:DISL:BSCA:1,2015-07-04T13:30:00Z,30.3288,-87.8293,2.101,5.56,1111122 
DISL,ioos:station:DISL:BSCA:1,2015-07-04T14:00:00Z,30.3288,-87.8293,2.122,4.68,1111122 
DISL,ioos:station:DISL:BSCA:1,2015-07-04T14:30:00Z,30.3288,-87.8293,2.151,5.01,1111122 
DISL,ioos:station:DISL:BSCA:1,2015-07-04T15:00:00Z,30.3288,-87.8293,2.169,5.07,1111122 
DISL,ioos:station:DISL:BSCA:1,2015-07-04T15:30:00Z,30.3288,-87.8293,2.194,5.23,1111122 
DISL,ioos:station:DISL:BSCA:1,2015-07-04T16:00:00Z,30.3288,-87.8293,2.21,4.8,1111122 
DISL,ioos:station:DISL:BSCA:1,2015-07-04T16:30:00Z,30.3288,-87.8293,2.227,4.75,1111122 
DISL,ioos:station:DISL:BSCA:1,2015-07-04T17:00:00Z,30.3288,-87.8293,2.223,5.16,1111122 
DISL,ioos:station:DISL:BSCA:1,2015-07-04T17:30:00Z,30.3288,-87.8293,2.227,5.13,1111122 
DISL,ioos:station:DISL:BSCA:1,2015-07-04T18:00:00Z,30.3288,-87.8293,2.225,4.85,1111122 
DISL,ioos:station:DISL:BSCA:1,2015-07-04T18:30:00Z,30.3288,-87.8293,2.218,6.01,1111122 
DISL,ioos:station:DISL:BSCA:1,2015-07-04T19:00:00Z,30.3288,-87.8293,2.207,6.43,1111122 
DISL,ioos:station:DISL:BSCA:1,2015-07-04T19:30:00Z,30.3288,-87.8293,2.184,6.1,1111122 
DISL,ioos:station:DISL:BSCA:1,2015-07-04T20:00:00Z,30.3288,-87.8293,2.16,6.24,1111122 
DISL,ioos:station:DISL:BSCA:1,2015-07-04T20:30:00Z,30.3288,-87.8293,2.135,6.56,1111122 
DISL,ioos:station:DISL:BSCA:1,2015-07-04T21:00:00Z,30.3288,-87.8293,2.111,7.05,1111122 
DISL,ioos:station:DISL:BSCA:1,2015-07-04T21:30:00Z,30.3288,-87.8293,2.091,6.9,1111122 
DISL,ioos:station:DISL:BSCA:1,2015-07-04T22:00:00Z,30.3288,-87.8293,2.048,7.01,1111122 
DISL,ioos:station:DISL:BSCA:1,2015-07-04T22:30:00Z,30.3288,-87.8293,2.028,7.06,1111122 
DISL,ioos:station:DISL:BSCA:1,2015-07-04T23:00:00Z,30.3288,-87.8293,1.993,6.69,1111122 
DISL,ioos:station:DISL:BSCA:1,2015-07-04T23:30:00Z,30.3288,-87.8293,1.956,6.51,1111122 
DISL,ioos:station:DISL:BSCA:1,2015-07-05T00:00:00Z,30.3288,-87.8293,1.935,6.33,1111122 
DISL,ioos:station:DISL:BSCA:1,2015-07-05T00:30:00Z,30.3288,-87.8293,1.861,6.83,1111122 
DISL,ioos:station:DISL:BSCA:1,2015-07-05T01:00:00Z,30.3288,-87.8293,1.995,7.13,1111122 
DISL,ioos:station:DISL:BSCA:1,2015-07-05T01:30:00Z,30.3288,-87.8293,1.87,6.5,1111122 
DISL,ioos:station:DISL:BSCA:1,2015-07-05T02:00:00Z,30.3288,-87.8293,1.754,6.87,1111122 
DISL,ioos:station:DISL:BSCA:1,2015-07-05T02:30:00Z,30.3288,-87.8293,1.723,7.0,1111122 
DISL,ioos:station:DISL:BSCA:1,2015-07-05T03:00:00Z,30.3288,-87.8293,1.646,6.35,1111122 
DISL,ioos:station:DISL:BSCA:1,2015-07-05T03:30:00Z,30.3288,-87.8293,1.651,4.26,1111122 
DISL,ioos:station:DISL:BSCA:1,2015-07-05T04:00:00Z,30.3288,-87.8293,1.648,4.46,1111122 
DISL,ioos:station:DISL:BSCA:1,2015-07-05T04:30:00Z,30.3288,-87.8293,1.645,3.98,1111122 
DISL,ioos:station:DISL:BSCA:1,2015-07-05T05:00:00Z,30.3288,-87.8293,1.661,6.0,1111122 
DISL,ioos:station:DISL:BSCA:1,2015-07-05T05:30:00Z,30.3288,-87.8293,1.69,4.52,1111122 
DISL,ioos:station:DISL:BSCA:1,2015-07-05T06:00:00Z,30.3288,-87.8293,1.697,2.71,1111122 
DISL,ioos:station:DISL:BSCA:1,2015-07-05T06:30:00Z,30.3288,-87.8293,1.739,2.32,1111122 
DISL,ioos:station:DISL:BSCA:1,2015-07-05T07:00:00Z,30.3288,-87.8293,1.744,4.09,1111122 
DISL,ioos:station:DISL:BSCA:1,2015-07-05T07:30:00Z,30.3288,-87.8293,1.764,3.41,1111122 
DISL,ioos:station:DISL:BSCA:1,2015-07-05T08:00:00Z,30.3288,-87.8293,1.781,3.39,1111122 
DISL,ioos:station:DISL:BSCA:1,2015-07-05T08:30:00Z,30.3288,-87.8293,1.799,2.33,1111122 
DISL,ioos:station:DISL:BSCA:1,2015-07-05T09:00:00Z,30.3288,-87.8293,1.828,2.36,1111122 
DISL,ioos:station:DISL:BSCA:1,2015-07-05T09:30:00Z,30.3288,-87.8293,1.863,2.7,1111122 
DISL,ioos:station:DISL:BSCA:1,2015-07-05T10:00:00Z,30.3288,-87.8293,1.893,3.77,1111122 
DISL,ioos:station:DISL:BSCA:1,2015-07-05T10:30:00Z,30.3288,-87.8293,1.911,3.77,1111122 
DISL,ioos:station:DISL:BSCA:1,2015-07-05T11:00:00Z,30.3288,-87.8293,1.932,3.45,1111122 
DISL,ioos:station:DISL:BSCA:1,2015-07-05T11:30:00Z,30.3288,-87.8293,1.932,2.51,1111122 
DISL,ioos:station:DISL:BSCA:1,2015-07-05T12:00:00Z,30.3288,-87.8293,1.97,5.97,1111122 
DISL,ioos:station:DISL:BSCA:1,2015-07-05T12:30:00Z,30.3288,-87.8293,2.025,4.78,1111122 
DISL,ioos:station:DISL:BSCA:1,2015-07-05T13:00:00Z,30.3288,-87.8293,1.939,5.49,1111122 
DISL,ioos:station:DISL:BSCA:1,2015-07-05T13:30:00Z,30.3288,-87.8293,2.052,4.61,1111122 
DISL,ioos:station:DISL:BSCA:1,2015-07-05T14:00:00Z,30.3288,-87.8293,2.034,5.56,1111122 
DISL,ioos:station:DISL:BSCA:1,2015-07-05T14:30:00Z,30.3288,-87.8293,2.059,5.49,1111122 
DISL,ioos:station:DISL:BSCA:1,2015-07-05T15:00:00Z,30.3288,-87.8293,2.085,4.67,1111122 
DISL,ioos:station:DISL:BSCA:1,2015-07-05T15:30:00Z,30.3288,-87.8293,2.121,3.88,1111122 
DISL,ioos:station:DISL:BSCA:1,2015-07-05T16:00:00Z,30.3288,-87.8293,2.116,4.69,1111122 
DISL,ioos:station:DISL:BSCA:1,2015-07-05T16:30:00Z,30.3288,-87.8293,2.149,3.94,1111122 
DISL,ioos:station:DISL:BSCA:1,2015-07-05T17:00:00Z,30.3288,-87.8293,2.173,4.5,1111122 
DISL,ioos:station:DISL:BSCA:1,2015-07-05T17:30:00Z,30.3288,-87.8293,2.19,3.44,1111122 
DISL,ioos:station:DISL:BSCA:1,2015-07-05T18:00:00Z,30.3288,-87.8293,2.208,4.2,1111122 
DISL,ioos:station:DISL:BSCA:1,2015-07-05T18:30:00Z,30.3288,-87.8293,2.213,3.29,1111122 
DISL,ioos:station:DISL:BSCA:1,2015-07-05T19:00:00Z,30.3288,-87.8293,2.202,4.0,1111122 
DISL,ioos:station:DISL:BSCA:1,2015-07-05T19:30:00Z,30.3288,-87.8293,2.131,5.9,1111122 
DISL,ioos:station:DISL:BSCA:1,2015-07-05T20:00:00Z,30.3288,-87.8293,2.062,6.32,1111122 
DISL,ioos:station:DISL:BSCA:1,2015-07-05T20:30:00Z,30.3288,-87.8293,2.085,5.84,1111122 
DISL,ioos:station:DISL:BSCA:1,2015-07-05T21:00:00Z,30.3288,-87.8293,2.043,5.78,1111122 
DISL,ioos:station:DISL:BSCA:1,2015-07-05T21:30:00Z,30.3288,-87.8293,2.102,6.31,1111122 
DISL,ioos:station:DISL:BSCA:1,2015-07-05T22:00:00Z,30.3288,-87.8293,2.082,6.6,1111122 
DISL,ioos:station:DISL:BSCA:1,2015-07-05T22:30:00Z,30.3288,-87.8293,2.076,6.13,1111122 
DISL,ioos:station:DISL:BSCA:1,2015-07-05T23:00:00Z,30.3288,-87.8293,2.007,6.33,1111122 
DISL,ioos:station:DISL:BSCA:1,2015-07-05T23:30:00Z,30.3288,-87.8293,2.002,5.63,1111122 
DISL,ioos:station:DISL:BSCA:1,2015-07-06T00:00:00Z,30.3288,-87.8293,1.869,6.43,1111122 
DISL,ioos:station:DISL:BSCA:1,2015-07-06T00:30:00Z,30.3288,-87.8293,1.806,6.44,1111122 
DISL,ioos:station:DISL:BSCA:1,2015-07-06T01:00:00Z,30.3288,-87.8293,1.751,5.27,1111122 
DISL,ioos:station:DISL:BSCA:1,2015-07-06T01:30:00Z,30.3288,-87.8293,1.757,5.62,1111122 
DISL,ioos:station:DISL:BSCA:1,2015-07-06T02:00:00Z,30.3288,-87.8293,1.831,6.22,1111122 
DISL,ioos:station:DISL:BSCA:1,2015-07-06T02:30:00Z,30.3288,-87.8293,1.922,6.18,1111122 
DISL,ioos:station:DISL:BSCA:1,2015-07-06T03:00:00Z,30.3288,-87.8293,1.887,6.07,1111122 
DISL,ioos:station:DISL:BSCA:1,2015-07-06T03:30:00Z,30.3288,-87.8293,1.828,6.05,1111122 
DISL,ioos:station:DISL:BSCA:1,2015-07-06T04:00:00Z,30.3288,-87.8293,1.765,5.73,1111122 
DISL,ioos:station:DISL:BSCA:1,2015-07-06T04:30:00Z,30.3288,-87.8293,1.725,5.75,1111122 
DISL,ioos:station:DISL:BSCA:1,2015-07-06T05:00:00Z,30.3288,-87.8293,1.692,4.73,1111122 
DISL,ioos:station:DISL:BSCA:1,2015-07-06T05:30:00Z,30.3288,-87.8293,1.626,4.96,1111122 
DISL,ioos:station:DISL:BSCA:1,2015-07-06T06:00:00Z,30.3288,-87.8293,1.664,3.0,1111122 
DISL,ioos:station:DISL:BSCA:1,2015-07-06T06:30:00Z,30.3288,-87.8293,1.686,2.76,1111122 
DISL,ioos:station:DISL:BSCA:1,2015-07-06T07:00:00Z,30.3288,-87.8293,1.732,2.48,1111122 
DISL,ioos:station:DISL:BSCA:1,2015-07-06T07:30:00Z,30.3288,-87.8293,1.758,3.04,1111122 
DISL,ioos:station:DISL:BSCA:1,2015-07-06T08:00:00Z,30.3288,-87.8293,1.81,3.19,1111122 
DISL,ioos:station:DISL:BSCA:1,2015-07-06T08:30:00Z,30.3288,-87.8293,1.835,3.06,1111122 
DISL,ioos:station:DISL:BSCA:1,2015-07-06T09:00:00Z,30.3288,-87.8293,1.831,3.06,1111122 
DISL,ioos:station:DISL:BSCA:1,2015-07-06T09:30:00Z,30.3288,-87.8293,1.832,4.19,1111122 
DISL,ioos:station:DISL:BSCA:1,2015-07-06T10:00:00Z,30.3288,-87.8293,1.827,3.44,1111122 
DISL,ioos:station:DISL:BSCA:1,2015-07-06T10:30:00Z,30.3288,-87.8293,1.853,3.94,1111122 
DISL,ioos:station:DISL:BSCA:1,2015-07-06T11:00:00Z,30.3288,-87.8293,1.878,3.73,1111122 
DISL,ioos:station:DISL:BSCA:1,2015-07-06T11:30:00Z,30.3288,-87.8293,1.912,2.45,1111122 
DISL,ioos:station:DISL:BSCA:1,2015-07-06T12:00:00Z,30.3288,-87.8293,1.907,1.97,1111122 
DISL,ioos:station:DISL:BSCA:1,2015-07-06T12:30:00Z,30.3288,-87.8293,1.919,4.4,1111122 
DISL,ioos:station:DISL:BSCA:1,2015-07-06T13:00:00Z,30.3288,-87.8293,1.906,2.71,1111122 
DISL,ioos:station:DISL:BSCA:1,2015-07-06T13:30:00Z,30.3288,-87.8293,1.917,1.96,1111122 
DISL,ioos:station:DISL:BSCA:1,2015-07-06T14:00:00Z,30.3288,-87.8293,1.928,3.88,1111122 
DISL,ioos:station:DISL:BSCA:1,2015-07-06T14:30:00Z,30.3288,-87.8293,1.935,2.06,1111122 
DISL,ioos:station:DISL:BSCA:1,2015-07-06T15:00:00Z,30.3288,-87.8293,1.951,3.73,1111122 
DISL,ioos:station:DISL:BSCA:1,2015-07-06T15:30:00Z,30.3288,-87.8293,1.963,3.61,1111122 